DW8722 Weather Reports


Display with metric or nautical units.
time (UTC)temp
F
wind
direction
speed
MPH
gust
MPH
rain 1hr
in
rain 24hr
in
rain mn
in
humidity
%
barometer
mb
20220122062955 25 76 2.0 3.0 0.00 0.00 0.00 60 1032.4
20220122061947 25 76 2.0 6.0 0.00 0.00 0.00 60 1032.4
20220122061007 25 76 2.0 6.0 0.00 0.00 0.00 59 1032.3
20220122055937 25 77 2.0 4.0 0.00 0.00 0.00 59 1032.4
20220122054925 26 78 2.0 4.0 0.00 0.00 0.00 59 1032.3
20220122053935 26 78 2.0 4.0 0.00 0.00 0.00 59 1032.4
20220122052945 26 79 2.0 4.0 0.00 0.00 0.00 58 1032.3
20220122051916 26 80 2.0 3.0 0.00 0.00 0.00 56 1032.3
20220122050912 27 81 2.0 3.0 0.00 0.00 0.00 57 1032.2
20220122045920 26 81 2.0 3.0 0.00 0.00 0.00 57 1032.0
20220122044910 26 81 2.0 3.0 0.00 0.00 0.00 57 1032.2
20220122043932 26 81 2.0 3.0 0.00 0.00 0.00 57 1032.0
20220122042948 26 81 2.0 3.0 0.00 0.00 0.00 57 1032.0
20220122041944 26 81 2.0 3.0 0.00 0.00 0.00 56 1031.9
20220122040938 27 81 2.0 3.0 0.00 0.00 0.00 55 1031.8
20220122035928 27 81 1.0 2.0 0.00 0.00 0.00 54 1031.8
20220122034916 27 81 1.0 2.0 0.00 0.00 0.00 53 1031.7
20220122033858 27 81 2.0 3.0 0.00 0.00 0.00 55 1031.6
20220122032831 28 81 1.0 3.0 0.00 0.00 0.00 52 1031.5
20220122031812 28 81 0.0 2.0 0.00 0.00 0.00 53 1031.6
20220122030814 28 81 0.0 2.0 0.00 0.00 0.00 51 1031.4
20220122025742 28 81 1.0 2.0 0.00 0.00 0.00 49 1031.3
20220122024711 29 81 1.0 3.0 0.00 0.00 0.00 49 1031.1
20220122023724 30 81 2.0 3.0 0.00 0.00 0.00 49 1031.1
20220122022711 30 82 2.0 4.0 0.00 0.00 0.00 48 1031.0
20220122021722 31 82 2.0 4.0 0.00 0.00 0.00 47 1030.9
20220122020738 31 82 2.0 4.0 0.00 0.00 0.00 48 1030.9
20220122015729 30 82 2.0 4.0 0.00 0.00 0.00 48 1030.9
20220122014659 30 82 1.0 3.0 0.00 0.00 0.00 45 1031.0
20220122013624 31 82 2.0 3.0 0.00 0.00 0.00 45 1031.0
20220122012556 31 82 1.0 2.0 0.00 0.00 0.00 44 1031.0
20220122011531 32 82 1.0 2.0 0.00 0.00 0.00 42 1030.8
20220122010545 33 82 1.0 2.0 0.00 0.00 0.00 41 1030.9
20220122005535 33 82 1.0 2.0 0.00 0.00 0.00 41 1030.8
20220122004506 35 82 1.0 2.0 0.00 0.00 0.00 40 1030.6
20220122003519 36 82 1.0 3.0 0.00 0.00 0.00 38 1030.5
20220122002535 37 82 1.0 4.0 0.00 0.00 0.00 36 1030.5
20220122001557 38 82 2.0 4.0 0.00 0.00 0.00 35 1030.2
20220122000528 38 82 2.0 6.0 0.00 0.00 0.00 35 1030.2
20220121235550 39 82 2.0 6.0 0.00 0.00 0.00 34 1029.9
20220121234611 39 83 2.0 6.0 0.00 0.00 0.00 33 1029.6
20220121233617 40 82 2.0 6.0 0.00 0.00 0.00 32 1029.6
20220121232630 40 86 2.0 4.0 0.00 0.00 0.00 32 1029.5
20220121231622 41 84 3.0 8.0 0.00 0.00 0.00 32 1029.6
20220121230629 41 88 4.0 8.0 0.00 0.00 0.00 31 1029.6
20220121225651 42 88 3.0 7.0 0.00 0.00 0.00 31 1029.8
20220121224651 42 89 3.0 8.0 0.00 0.00 0.00 32 1029.9
20220121223633 42 67 4.0 11.0 0.00 0.00 0.00 32 1029.8
20220121222649 42 96 5.0 11.0 0.00 0.00 0.00 30 1029.9
20220121221623 43 86 4.0 9.0 0.00 0.00 0.00 30 1030.1
20220121220633 43 65 4.0 8.0 0.00 0.00 0.00 32 1030.2
20220121215606 43 88 3.0 8.0 0.00 0.00 0.00 31 1030.3
20220121214557 43 65 3.0 10.0 0.00 0.00 0.00 32 1030.4
20220121213527 43 43 4.0 10.0 0.00 0.00 0.00 31 1030.4
20220121212118 42 39 4.0 9.0 0.00 0.00 0.00 32 1030.5
20220121211055 42 69 3.0 8.0 0.00 0.00 0.00 32 1030.5
20220121210027 42 86 4.0 8.0 0.00 0.00 0.00 33 1030.5
20220121205000 42 49 4.0 9.0 0.00 0.00 0.00 34 1030.6
20220121204020 42 79 6.0 11.0 0.00 0.00 0.00 34 1030.6
20220121203045 41 64 5.0 11.0 0.00 0.00 0.00 34 1030.7
20220121202035 41 95 4.0 9.0 0.00 0.00 0.00 34 1030.7
20220121201059 41 101 4.0 9.0 0.00 0.00 0.00 35 1030.9
20220121200055 40 88 4.0 9.0 0.00 0.00 0.00 36 1031.0
20220121195039 40 92 4.0 10.0 0.00 0.00 0.00 36 1031.1
20220121194052 39 59 4.0 10.0 0.00 0.00 0.00 37 1031.2
20220121193109 39 105 3.0 9.0 0.00 0.00 0.00 38 1031.3
20220121192049 38 69 5.0 9.0 0.00 0.00 0.00 37 1031.7
20220121191033 39 49 4.0 11.0 0.00 0.00 0.00 38 1031.9
20220121190028 38 19 5.0 11.0 0.00 0.00 0.00 38 1032.2
20220121185016 37 37 2.0 8.0 0.00 0.00 0.00 41 1032.4
20220121184013 37 75 3.0 10.0 0.00 0.00 0.00 41 1032.6
20220121183032 37 59 3.0 10.0 0.00 0.00 0.00 43 1033.0
20220121182038 36 73 2.0 7.0 0.00 0.00 0.00 44 1033.1
20220121181047 36 58 2.0 8.0 0.00 0.00 0.00 44 1033.3
20220121180040 35 78 4.0 10.0 0.00 0.00 0.00 44 1033.4
20220121175042 35 132 4.0 10.0 0.00 0.00 0.00 46 1033.7
20220121174020 35 84 4.0 10.0 0.00 0.00 0.00 47 1033.8
20220121173039 34 102 4.0 10.0 0.00 0.00 0.00 47 1033.9
20220121172036 34 69 4.0 10.0 0.00 0.00 0.00 49 1034.1
20220121171054 33 51 6.0 10.0 0.00 0.00 0.00 49 1034.1
20220121170027 32 58 4.0 8.0 0.00 0.00 0.00 49 1034.3
20220121165027 32 88 3.0 8.0 0.00 0.00 0.00 50 1034.5
20220121164036 31 103 4.0 8.0 0.00 0.00 0.00 51 1034.6
20220121163004 31 103 4.0 9.0 0.00 0.00 0.00 52 1034.5
20220121161933 30 80 4.0 8.0 0.00 0.00 0.00 53 1034.5
20220121160924 29 98 4.0 8.0 0.00 0.00 0.00 55 1034.3
20220121155925 28 55 4.0 9.0 0.00 0.00 0.00 57 1034.4
20220121154930 27 36 4.0 9.0 0.00 0.00 0.00 58 1034.5
20220121153949 27 47 4.0 8.0 0.00 0.00 0.00 59 1034.4
20220121153005 26 59 3.0 8.0 0.00 0.00 0.00 60 1034.3
20220121152004 25 38 3.0 8.0 0.00 0.00 0.00 62 1034.3
20220121150944 23 35 4.0 8.0 0.00 0.00 0.00 63 1034.1
20220121145913 22 37 3.0 8.0 0.00 0.00 0.00 65 1034.0
20220121144938 21 25 3.0 7.0 0.00 0.00 0.00 65 1034.0
20220121143913 20 26 3.0 8.0 0.00 0.00 0.00 66 1033.8
20220121142852 19 5 4.0 9.0 0.00 0.00 0.00 67 1033.9
20220121141823 18 0 5.0 9.0 0.00 0.00 0.00 67 1033.8
20220121140830 18 18 3.0 7.0 0.00 0.00 0.00 68 1034.0
20220121135816 17 5 3.0 7.0 0.00 0.00 0.00 68 1033.8
20220121134818 17 5 3.0 7.0 0.00 0.00 0.00 67 1033.8
20220121133753 17 18 3.0 6.0 0.00 0.00 0.00 67 1033.6
20220121132816 17 5 3.0 6.0 0.00 0.00 0.00 66 1033.2
20220121131747 17 5 3.0 6.0 0.00 0.00 0.00 66 1033.3
20220121130757 17 0 2.0 6.0 0.00 0.00 0.00 66 1033.2
20220121125811 17 0 2.0 6.0 0.00 0.00 0.00 65 1033.1
20220121124747 17 5 3.0 6.0 0.00 0.00 0.00 65 1032.9
20220121123802 17 11 3.0 7.0 0.00 0.00 0.00 64 1032.9
20220121122807 18 5 3.0 7.0 0.00 0.00 0.00 63 1032.8
20220121121740 18 11 2.0 5.0 0.00 0.00 0.00 62 1032.7
20220121120742 18 0 2.0 5.0 0.00 0.00 0.00 62 1032.7
20220121115743 18 355 2.0 4.0 0.00 0.00 0.00 62 1032.6
20220121114753 19 348 2.0 5.0 0.00 0.00 0.00 62 1032.6
20220121113750 19 343 2.0 5.0 0.00 0.00 0.00 61 1032.8
20220121112730 19 351 2.0 7.0 0.00 0.00 0.00 60 1032.7
20220121111707 20 349 2.0 7.0 0.00 0.00 0.00 60 1032.6
20220121110650 20 0 2.0 5.0 0.00 0.00 0.00 59 1032.8
20220121105626 21 346 2.0 5.0 0.00 0.00 0.00 58 1032.8
20220121104639 21 350 2.0 8.0 0.00 0.00 0.00 58 1032.9
20220121103644 21 341 4.0 8.0 0.00 0.00 0.00 57 1032.8
20220121102649 22 355 3.0 9.0 0.00 0.00 0.00 56 1032.9
20220121101648 22 355 5.0 9.0 0.00 0.00 0.00 56 1032.9
20220121100626 22 339 5.0 10.0 0.00 0.00 0.00 56 1032.9
20220121095630 22 355 4.0 11.0 0.00 0.00 0.00 56 1033.0
20220121094638 22 336 5.0 11.0 0.00 0.00 0.00 55 1033.1
20220121093652 22 324 5.0 10.0 0.00 0.00 0.00 55 1033.1
20220121092651 22 346 4.0 10.0 0.00 0.00 0.00 56 1033.2
20220121091633 22 344 6.0 10.0 0.00 0.00 0.00 56 1033.4
20220121090646 22 348 5.0 10.0 0.00 0.00 0.00 56 1033.3
20220121085710 22 333 5.0 9.0 0.00 0.00 0.00 55 1033.5
20220121084718 22 355 5.0 10.0 0.00 0.00 0.00 56 1033.6
20220121083654 22 348 5.0 10.0 0.00 0.00 0.00 56 1033.5
20220121082637 22 317 5.0 8.0 0.00 0.00 0.00 57 1033.7
20220121081658 22 327 5.0 8.0 0.00 0.00 0.00 57 1033.5
20220121080703 21 319 4.0 8.0 0.00 0.00 0.00 56 1033.7
20220121075645 22 327 3.0 7.0 0.00 0.00 0.00 55 1033.7
20220121074615 22 339 2.0 5.0 0.00 0.00 0.00 55 1033.6
20220121073554 22 344 3.0 8.0 0.00 0.00 0.00 55 1033.8
20220121072616 22 336 4.0 8.0 0.00 0.00 0.00 54 1033.8
20220121071640 22 346 4.0 10.0 0.00 0.00 0.00 53 1033.9
20220121070626 22 9 5.0 10.0 0.00 0.00 0.00 53 1034.0
20220121065627 23 336 4.0 8.0 0.00 0.00 0.00 53 1033.9
20220121064555 23 317 5.0 10.0 0.00 0.00 0.00 52 1034.2
20220121063609 23 341 5.0 10.0 0.00 0.00 0.00 51 1034.2